User: anonymous   Login
Location: Arrakis Observatory
(44.1122°N, 95.7153°W)
Time: 21:49:20
(UTC-06:00)
Language:

Coronas F rocket - Orbit

View from above orbital plane
View from above orbital plane
View from above satellite
View from above satellite

Ground track
Ground track

The orbit data is extracted from the following two-line orbital elements,

1 26874U 01032B   14352.88724584  .00024353  00000-0  32592-3 0  8769
2 26874 082.4689 149.1596 0014067 092.8634 267.4232 15.57739488749992
Epoch (UTC): 18 December 2014 21:17:38
Eccentricity: 0.0014067
inclination: 82.4689°
perigee height: 384 km
apogee height: 404 km
right ascension of ascending node: 149.1596°
argument of perigee: 92.8634°
revolutions per day: 15.57739488
mean anomaly at epoch: 267.4232°
orbit number at epoch: 74999

The dashed part of the orbit path shows where the satellite is in the earth's shadow,  

DLR